Torna al catalogo

STARLINK-31126

AttivoComunicazioniVLEO
NORAD 58675·PAYLOAD·🇺🇸 United States

Lanciato Dec 29, 2023 da Cape Canaveral Space Force Station

Loading…

Prossimi Passaggi (prossime 24 ore)

TLE

AggiornatoSource: CelesTrak SupGP

Epoca: Sep 14, 2026, 22:39 UTC

1 58675C 23211J   26257.94423611  .00038125  00000+0  13810-2 0  2572
2 58675  43.0031  96.0136 0001307 274.6475  94.2198 15.27557449    18

Traccia STARLINK-31126 in tempo reale con AllMySat

Download on the App Store